Time,TemperatureF,DewpointF,PressureIn,WindDirection,WindDirectionDegrees,WindSpeedMPH,WindSpeedGustMPH,Humidity,HourlyPrecipIn,Conditions,Clouds,dailyrainin,SoftwareType,DateUTC
2013-05-08 00:01:00,40.0,30.0,-100.00,North,-999,-999.0,-999.0,67,-99.99,,,-99.99,,2013-05-08 06:01:00,
2013-05-08 00:12:00,40.0,30.0,-100.00,North,-999,-999.0,-999.0,67,-99.99,,,-99.99,,2013-05-08 06:12:00,
2013-05-08 00:21:00,41.0,29.0,-100.00,North,-999,-999.0,-999.0,63,-99.99,,,-99.99,,2013-05-08 06:21:00,
2013-05-08 00:32:00,41.0,29.0,-100.00,North,-999,-999.0,-999.0,63,-99.99,,,-99.99,,2013-05-08 06:32:00,
2013-05-08 00:41:00,41.0,29.0,-100.00,North,-999,-999.0,-999.0,63,-99.99,,,-99.99,,2013-05-08 06:41:00,
2013-05-08 00:52:00,41.0,30.0,-100.00,North,-999,-999.0,-999.0,65,-99.99,,,-99.99,,2013-05-08 06:52:00,
2013-05-08 01:01:00,40.0,30.0,-100.00,North,-999,-999.0,-999.0,68,-99.99,,,-99.99,,2013-05-08 07:01:00,
2013-05-08 01:11:00,40.0,30.0,-100.00,North,-999,-999.0,-999.0,68,-99.99,,,-99.99,,2013-05-08 07:11:00,
2013-05-08 01:21:00,40.0,31.0,-100.00,North,-999,-999.0,-999.0,69,-99.99,,,-99.99,,2013-05-08 07:21:00,
2013-05-08 01:31:00,39.0,30.0,-100.00,North,-999,-999.0,-999.0,70,-99.99,,,-99.99,,2013-05-08 07:31:00,
2013-05-08 01:42:00,39.0,30.0,-100.00,North,-999,-999.0,-999.0,70,-99.99,,,-99.99,,2013-05-08 07:42:00,
2013-05-08 01:52:00,38.0,30.0,-100.00,North,-999,-999.0,-999.0,73,-99.99,,,-99.99,,2013-05-08 07:52:00,
2013-05-08 02:01:00,37.0,29.0,-100.00,North,-999,-999.0,-999.0,74,-99.99,,,-99.99,,2013-05-08 08:01:00,
2013-05-08 02:11:00,37.0,29.0,-100.00,North,-999,-999.0,-999.0,74,-99.99,,,-99.99,,2013-05-08 08:11:00,
2013-05-08 02:21:00,38.0,30.0,-100.00,North,-999,-999.0,-999.0,74,-99.99,,,-99.99,,2013-05-08 08:21:00,
2013-05-08 02:31:00,38.0,30.0,-100.00,North,-999,-999.0,-999.0,73,-99.99,,,-99.99,,2013-05-08 08:31:00,
2013-05-08 02:42:00,38.0,30.0,-100.00,North,-999,-999.0,-999.0,73,-99.99,,,-99.99,,2013-05-08 08:42:00,
2013-05-08 02:52:00,37.0,30.0,-100.00,North,-999,-999.0,-999.0,77,-99.99,,,-99.99,,2013-05-08 08:52:00,
2013-05-08 03:02:00,37.0,30.0,-100.00,North,-999,-999.0,-999.0,76,-99.99,,,-99.99,,2013-05-08 09:02:00,
2013-05-08 03:11:00,37.0,30.0,-100.00,North,-999,-999.0,-999.0,76,-99.99,,,-99.99,,2013-05-08 09:11:00,
2013-05-08 03:21:00,37.0,30.0,-100.00,North,-999,-999.0,-999.0,76,-99.99,,,-99.99,,2013-05-08 09:21:00,
2013-05-08 03:32:00,40.0,29.0,-100.00,North,-999,-999.0,-999.0,64,-99.99,,,-99.99,,2013-05-08 09:32:00,
2013-05-08 03:42:00,40.0,29.0,-100.00,North,-999,-999.0,-999.0,64,-99.99,,,-99.99,,2013-05-08 09:42:00,
2013-05-08 03:53:00,40.0,28.0,-100.00,North,-999,-999.0,-999.0,63,-99.99,,,-99.99,,2013-05-08 09:53:00,
2013-05-08 04:02:00,40.0,29.0,-100.00,North,-999,-999.0,-999.0,64,-99.99,,,-99.99,,2013-05-08 10:02:00,
2013-05-08 04:12:00,40.0,29.0,-100.00,North,-999,-999.0,-999.0,64,-99.99,,,-99.99,,2013-05-08 10:12:00,
2013-05-08 04:22:00,39.0,28.0,-100.00,North,-999,-999.0,-999.0,65,-99.99,,,-99.99,,2013-05-08 10:22:00,
2013-05-08 04:33:00,39.0,30.0,-100.00,North,-999,-999.0,-999.0,69,-99.99,,,-99.99,,2013-05-08 10:33:00,
2013-05-08 04:42:00,39.0,30.0,-100.00,North,-999,-999.0,-999.0,69,-99.99,,,-99.99,,2013-05-08 10:42:00,
2013-05-08 04:52:00,39.0,29.0,-100.00,North,-999,-999.0,-999.0,66,-99.99,,,-99.99,,2013-05-08 10:52:00,
2013-05-08 05:02:00,39.0,28.0,-100.00,North,-999,-999.0,-999.0,65,-99.99,,,-99.99,,2013-05-08 11:02:00,
2013-05-08 05:11:00,39.0,28.0,-100.00,North,-999,-999.0,-999.0,65,-99.99,,,-99.99,,2013-05-08 11:11:00,
2013-05-08 05:22:00,39.0,29.0,-100.00,North,-999,-999.0,-999.0,66,-99.99,,,-99.99,,2013-05-08 11:22:00,
2013-05-08 05:32:00,39.0,29.0,-100.00,North,-999,-999.0,-999.0,66,-99.99,,,-99.99,,2013-05-08 11:32:00,
2013-05-08 05:42:00,39.0,29.0,-100.00,North,-999,-999.0,-999.0,66,-99.99,,,-99.99,,2013-05-08 11:42:00,
2013-05-08 05:52:00,39.0,28.0,-100.00,North,-999,-999.0,-999.0,65,-99.99,,,-99.99,,2013-05-08 11:52:00,
2013-05-08 06:01:00,39.0,29.0,-100.00,North,-999,-999.0,-999.0,67,-99.99,,,-99.99,,2013-05-08 12:01:00,
2013-05-08 06:11:00,39.0,29.0,-100.00,North,-999,-999.0,-999.0,67,-99.99,,,-99.99,,2013-05-08 12:11:00,
2013-05-08 06:21:00,39.0,29.0,-100.00,North,-999,-999.0,-999.0,67,-99.99,,,-99.99,,2013-05-08 12:21:00,
2013-05-08 06:31:00,39.0,29.0,-100.00,North,-999,-999.0,-999.0,67,-99.99,,,-99.99,,2013-05-08 12:31:00,
2013-05-08 06:41:00,39.0,29.0,-100.00,North,-999,-999.0,-999.0,67,-99.99,,,-99.99,,2013-05-08 12:41:00,
2013-05-08 06:52:00,39.0,29.0,-100.00,North,-999,-999.0,-999.0,68,-99.99,,,-99.99,,2013-05-08 12:52:00,
2013-05-08 07:01:00,39.0,29.0,-100.00,North,-999,-999.0,-999.0,66,-99.99,,,-99.99,,2013-05-08 13:01:00,
2013-05-08 07:11:00,39.0,29.0,-100.00,North,-999,-999.0,-999.0,66,-99.99,,,-99.99,,2013-05-08 13:11:00,
2013-05-08 07:21:00,40.0,30.0,-100.00,North,-999,-999.0,-999.0,66,-99.99,,,-99.99,,2013-05-08 13:21:00,
2013-05-08 07:32:00,40.0,29.0,-100.00,North,-999,-999.0,-999.0,64,-99.99,,,-99.99,,2013-05-08 13:32:00,
2013-05-08 07:42:00,40.0,29.0,-100.00,North,-999,-999.0,-999.0,64,-99.99,,,-99.99,,2013-05-08 13:42:00,
2013-05-08 07:52:00,40.0,28.0,-100.00,North,-999,-999.0,-999.0,63,-99.99,,,-99.99,,2013-05-08 13:52:00,
2013-05-08 08:02:00,40.0,28.0,-100.00,North,-999,-999.0,-999.0,63,-99.99,,,-99.99,,2013-05-08 14:02:00,
2013-05-08 08:11:00,40.0,28.0,-100.00,North,-999,-999.0,-999.0,63,-99.99,,,-99.99,,2013-05-08 14:11:00,
2013-05-08 08:21:00,41.0,29.0,-100.00,North,-999,-999.0,-999.0,62,-99.99,,,-99.99,,2013-05-08 14:21:00,
2013-05-08 08:31:00,43.0,29.0,-100.00,North,-999,-999.0,-999.0,58,-99.99,,,-99.99,,2013-05-08 14:31:00,
2013-05-08 08:42:00,43.0,29.0,-100.00,North,-999,-999.0,-999.0,58,-99.99,,,-99.99,,2013-05-08 14:42:00,
2013-05-08 08:52:00,43.0,29.0,-100.00,North,-999,-999.0,-999.0,57,-99.99,,,-99.99,,2013-05-08 14:52:00,
2013-05-08 09:01:00,43.0,29.0,-100.00,North,-999,-999.0,-999.0,57,-99.99,,,-99.99,,2013-05-08 15:01:00,
2013-05-08 09:11:00,43.0,29.0,-100.00,North,-999,-999.0,-999.0,57,-99.99,,,-99.99,,2013-05-08 15:11:00,
2013-05-08 09:21:00,44.0,28.0,-100.00,North,-999,-999.0,-999.0,54,-99.99,,,-99.99,,2013-05-08 15:21:00,
2013-05-08 09:33:00,46.0,29.0,-100.00,North,-999,-999.0,-999.0,52,-99.99,,,-99.99,,2013-05-08 15:33:00,
2013-05-08 09:42:00,46.0,29.0,-100.00,North,-999,-999.0,-999.0,52,-99.99,,,-99.99,,2013-05-08 15:42:00,
2013-05-08 09:53:00,46.0,29.0,-100.00,North,-999,-999.0,-999.0,52,-99.99,,,-99.99,,2013-05-08 15:53:00,
2013-05-08 10:03:00,46.0,29.0,-100.00,North,-999,-999.0,-999.0,52,-99.99,,,-99.99,,2013-05-08 16:03:00,
2013-05-08 10:12:00,46.0,29.0,-100.00,North,-999,-999.0,-999.0,52,-99.99,,,-99.99,,2013-05-08 16:12:00,
2013-05-08 10:23:00,45.0,29.0,-100.00,North,-999,-999.0,-999.0,54,-99.99,,,-99.99,,2013-05-08 16:23:00,
2013-05-08 10:33:00,46.0,32.0,-100.00,North,-999,-999.0,-999.0,57,-99.99,,,-99.99,,2013-05-08 16:33:00,
2013-05-08 10:42:00,46.0,32.0,-100.00,North,-999,-999.0,-999.0,57,-99.99,,,-99.99,,2013-05-08 16:42:00,
2013-05-08 10:52:00,45.0,31.0,-100.00,North,-999,-999.0,-999.0,58,-99.99,,,-99.99,,2013-05-08 16:52:00,
2013-05-08 11:02:00,47.0,30.0,-100.00,North,-999,-999.0,-999.0,51,-99.99,,,-99.99,,2013-05-08 17:02:00,
2013-05-08 11:11:00,47.0,30.0,-100.00,North,-999,-999.0,-999.0,51,-99.99,,,-99.99,,2013-05-08 17:11:00,
2013-05-08 11:22:00,48.0,29.0,-100.00,North,-999,-999.0,-999.0,47,-99.99,,,-99.99,,2013-05-08 17:22:00,
2013-05-08 11:31:00,48.0,29.0,-100.00,North,-999,-999.0,-999.0,47,-99.99,,,-99.99,,2013-05-08 17:31:00,
2013-05-08 11:41:00,48.0,29.0,-100.00,North,-999,-999.0,-999.0,47,-99.99,,,-99.99,,2013-05-08 17:41:00,
2013-05-08 11:52:00,49.0,27.0,-100.00,North,-999,-999.0,-999.0,43,-99.99,,,-99.99,,2013-05-08 17:52:00,
2013-05-08 12:02:00,49.0,27.0,-100.00,North,-999,-999.0,-999.0,43,-99.99,,,-99.99,,2013-05-08 18:02:00,
2013-05-08 12:11:00,49.0,27.0,-100.00,North,-999,-999.0,-999.0,43,-99.99,,,-99.99,,2013-05-08 18:11:00,
2013-05-08 12:21:00,50.0,27.0,-100.00,North,-999,-999.0,-999.0,41,-99.99,,,-99.99,,2013-05-08 18:21:00,
2013-05-08 12:31:00,50.0,26.0,-100.00,North,-999,-999.0,-999.0,39,-99.99,,,-99.99,,2013-05-08 18:31:00,
2013-05-08 12:42:00,50.0,26.0,-100.00,North,-999,-999.0,-999.0,39,-99.99,,,-99.99,,2013-05-08 18:42:00,
2013-05-08 12:52:00,51.0,27.0,-100.00,North,-999,-999.0,-999.0,39,-99.99,,,-99.99,,2013-05-08 18:52:00,
2013-05-08 13:01:00,52.0,27.0,-100.00,North,-999,-999.0,-999.0,37,-99.99,,,-99.99,,2013-05-08 19:01:00,
2013-05-08 13:11:00,52.0,27.0,-100.00,North,-999,-999.0,-999.0,37,-99.99,,,-99.99,,2013-05-08 19:11:00,
2013-05-08 13:21:00,54.0,26.0,-100.00,North,-999,-999.0,-999.0,34,-99.99,,,-99.99,,2013-05-08 19:21:00,
2013-05-08 13:32:00,53.0,26.0,-100.00,North,-999,-999.0,-999.0,35,-99.99,,,-99.99,,2013-05-08 19:32:00,
2013-05-08 13:42:00,53.0,26.0,-100.00,North,-999,-999.0,-999.0,35,-99.99,,,-99.99,,2013-05-08 19:42:00,
2013-05-08 13:52:00,53.0,25.0,-100.00,North,-999,-999.0,-999.0,34,-99.99,,,-99.99,,2013-05-08 19:52:00,
2013-05-08 14:01:00,50.0,27.0,-100.00,North,-999,-999.0,-999.0,41,-99.99,,,-99.99,,2013-05-08 20:01:00,
2013-05-08 14:11:00,50.0,27.0,-100.00,North,-999,-999.0,-999.0,41,-99.99,,,-99.99,,2013-05-08 20:11:00,
2013-05-08 14:22:00,46.0,29.0,-100.00,North,-999,-999.0,-999.0,51,-99.99,,,-99.99,,2013-05-08 20:22:00,
2013-05-08 14:32:00,45.0,28.0,-100.00,North,-999,-999.0,-999.0,52,-99.99,,,-99.99,,2013-05-08 20:32:00,
2013-05-08 14:42:00,45.0,28.0,-100.00,North,-999,-999.0,-999.0,52,-99.99,,,-99.99,,2013-05-08 20:42:00,
2013-05-08 14:52:00,45.0,27.0,-100.00,North,-999,-999.0,-999.0,50,-99.99,,,-99.99,,2013-05-08 20:52:00,
2013-05-08 15:01:00,50.0,28.0,-100.00,North,-999,-999.0,-999.0,42,-99.99,,,-99.99,,2013-05-08 21:01:00,
2013-05-08 15:11:00,50.0,28.0,-100.00,North,-999,-999.0,-999.0,42,-99.99,,,-99.99,,2013-05-08 21:11:00,
2013-05-08 15:21:00,53.0,27.0,-100.00,North,-999,-999.0,-999.0,36,-99.99,,,-99.99,,2013-05-08 21:21:00,
2013-05-08 15:32:00,53.0,27.0,-100.00,North,-999,-999.0,-999.0,37,-99.99,,,-99.99,,2013-05-08 21:32:00,
2013-05-08 15:43:00,53.0,27.0,-100.00,North,-999,-999.0,-999.0,37,-99.99,,,-99.99,,2013-05-08 21:43:00,
2013-05-08 15:53:00,52.0,28.0,-100.00,North,-999,-999.0,-999.0,39,-99.99,,,-99.99,,2013-05-08 21:53:00,
2013-05-08 16:02:00,53.0,28.0,-100.00,North,-999,-999.0,-999.0,38,-99.99,,,-99.99,,2013-05-08 22:02:00,
2013-05-08 16:12:00,53.0,28.0,-100.00,North,-999,-999.0,-999.0,38,-99.99,,,-99.99,,2013-05-08 22:12:00,
2013-05-08 16:22:00,54.0,27.0,-100.00,North,-999,-999.0,-999.0,35,-99.99,,,-99.99,,2013-05-08 22:22:00,
2013-05-08 16:33:00,54.0,26.0,-100.00,North,-999,-999.0,-999.0,34,-99.99,,,-99.99,,2013-05-08 22:33:00,
2013-05-08 16:42:00,54.0,26.0,-100.00,North,-999,-999.0,-999.0,34,-99.99,,,-99.99,,2013-05-08 22:42:00,
2013-05-08 16:52:00,52.0,26.0,-100.00,North,-999,-999.0,-999.0,36,-99.99,,,-99.99,,2013-05-08 22:52:00,
2013-05-08 17:01:00,50.0,25.0,-100.00,North,-999,-999.0,-999.0,37,-99.99,,,-99.99,,2013-05-08 23:01:00,
2013-05-08 17:11:00,50.0,25.0,-100.00,North,-999,-999.0,-999.0,37,-99.99,,,-99.99,,2013-05-08 23:11:00,
2013-05-08 17:22:00,49.0,26.0,-100.00,North,-999,-999.0,-999.0,40,-99.99,,,-99.99,,2013-05-08 23:22:00,
2013-05-08 17:32:00,50.0,25.0,-100.00,North,-999,-999.0,-999.0,37,-99.99,,,-99.99,,2013-05-08 23:32:00,
2013-05-08 17:42:00,50.0,25.0,-100.00,North,-999,-999.0,-999.0,37,-99.99,,,-99.99,,2013-05-08 23:42:00,
2013-05-08 17:52:00,50.0,23.0,-100.00,North,-999,-999.0,-999.0,35,-99.99,,,-99.99,,2013-05-08 23:52:00,
2013-05-08 18:01:00,50.0,23.0,-100.00,North,-999,-999.0,-999.0,35,-99.99,,,-99.99,,2013-05-09 00:01:00,
2013-05-08 18:11:00,50.0,23.0,-100.00,North,-999,-999.0,-999.0,35,-99.99,,,-99.99,,2013-05-09 00:11:00,
2013-05-08 18:21:00,51.0,23.0,-100.00,North,-999,-999.0,-999.0,33,-99.99,,,-99.99,,2013-05-09 00:21:00,
2013-05-08 18:32:00,51.0,23.0,-100.00,North,-999,-999.0,-999.0,33,-99.99,,,-99.99,,2013-05-09 00:32:00,
2013-05-08 18:42:00,51.0,23.0,-100.00,North,-999,-999.0,-999.0,33,-99.99,,,-99.99,,2013-05-09 00:42:00,
2013-05-08 18:52:00,48.0,24.0,-100.00,North,-999,-999.0,-999.0,38,-99.99,,,-99.99,,2013-05-09 00:52:00,
2013-05-08 19:01:00,48.0,28.0,-100.00,North,-999,-999.0,-999.0,45,-99.99,,,-99.99,,2013-05-09 01:01:00,
2013-05-08 19:11:00,48.0,28.0,-100.00,North,-999,-999.0,-999.0,45,-99.99,,,-99.99,,2013-05-09 01:11:00,
2013-05-08 19:22:00,47.0,28.0,-100.00,North,-999,-999.0,-999.0,47,-99.99,,,-99.99,,2013-05-09 01:22:00,
2013-05-08 19:32:00,46.0,28.0,-100.00,North,-999,-999.0,-999.0,49,-99.99,,,-99.99,,2013-05-09 01:32:00,
2013-05-08 19:42:00,46.0,28.0,-100.00,North,-999,-999.0,-999.0,49,-99.99,,,-99.99,,2013-05-09 01:42:00,
2013-05-08 19:52:00,46.0,27.0,-100.00,North,-999,-999.0,-999.0,48,-99.99,,,-99.99,,2013-05-09 01:52:00,
2013-05-08 20:02:00,46.0,27.0,-100.00,North,-999,-999.0,-999.0,48,-99.99,,,-99.99,,2013-05-09 02:02:00,
2013-05-08 20:11:00,46.0,27.0,-100.00,North,-999,-999.0,-999.0,48,-99.99,,,-99.99,,2013-05-09 02:11:00,
2013-05-08 20:21:00,46.0,28.0,-100.00,North,-999,-999.0,-999.0,49,-99.99,,,-99.99,,2013-05-09 02:21:00,
2013-05-08 20:32:00,46.0,27.0,-100.00,North,-999,-999.0,-999.0,47,-99.99,,,-99.99,,2013-05-09 02:32:00,
2013-05-08 20:41:00,46.0,27.0,-100.00,North,-999,-999.0,-999.0,47,-99.99,,,-99.99,,2013-05-09 02:41:00,
2013-05-08 20:52:00,46.0,27.0,-100.00,North,-999,-999.0,-999.0,47,-99.99,,,-99.99,,2013-05-09 02:52:00,
2013-05-08 21:01:00,45.0,27.0,-100.00,North,-999,-999.0,-999.0,48,-99.99,,,-99.99,,2013-05-09 03:01:00,
2013-05-08 21:11:00,45.0,27.0,-100.00,North,-999,-999.0,-999.0,48,-99.99,,,-99.99,,2013-05-09 03:11:00,
2013-05-08 21:21:00,44.0,28.0,-100.00,North,-999,-999.0,-999.0,52,-99.99,,,-99.99,,2013-05-09 03:21:00,
2013-05-08 21:33:00,44.0,26.0,-100.00,North,-999,-999.0,-999.0,49,-99.99,,,-99.99,,2013-05-09 03:33:00,
2013-05-08 21:43:00,44.0,26.0,-100.00,North,-999,-999.0,-999.0,49,-99.99,,,-99.99,,2013-05-09 03:43:00,
2013-05-08 21:53:00,45.0,26.0,-100.00,North,-999,-999.0,-999.0,47,-99.99,,,-99.99,,2013-05-09 03:53:00,
2013-05-08 22:03:00,44.0,26.0,-100.00,North,-999,-999.0,-999.0,49,-99.99,,,-99.99,,2013-05-09 04:03:00,
2013-05-08 22:12:00,44.0,26.0,-100.00,North,-999,-999.0,-999.0,49,-99.99,,,-99.99,,2013-05-09 04:12:00,
2013-05-08 22:23:00,42.0,27.0,-100.00,North,-999,-999.0,-999.0,55,-99.99,,,-99.99,,2013-05-09 04:23:00,
2013-05-08 22:32:00,41.0,27.0,-100.00,North,-999,-999.0,-999.0,58,-99.99,,,-99.99,,2013-05-09 04:32:00,
2013-05-08 22:43:00,41.0,27.0,-100.00,North,-999,-999.0,-999.0,58,-99.99,,,-99.99,,2013-05-09 04:43:00,
2013-05-08 22:53:00,41.0,27.0,-100.00,North,-999,-999.0,-999.0,56,-99.99,,,-99.99,,2013-05-09 04:53:00,
2013-05-08 23:02:00,41.0,27.0,-100.00,North,-999,-999.0,-999.0,56,-99.99,,,-99.99,,2013-05-09 05:02:00,
2013-05-08 23:12:00,41.0,27.0,-100.00,North,-999,-999.0,-999.0,56,-99.99,,,-99.99,,2013-05-09 05:12:00,
2013-05-08 23:22:00,41.0,27.0,-100.00,North,-999,-999.0,-999.0,57,-99.99,,,-99.99,,2013-05-09 05:22:00,
2013-05-08 23:32:00,42.0,26.0,-100.00,North,-999,-999.0,-999.0,52,-99.99,,,-99.99,,2013-05-09 05:32:00,
2013-05-08 23:42:00,42.0,26.0,-100.00,North,-999,-999.0,-999.0,52,-99.99,,,-99.99,,2013-05-09 05:42:00,
2013-05-08 23:52:00,42.0,26.0,-100.00,North,-999,-999.0,-999.0,52,-99.99,,,-99.99,,2013-05-09 05:52:00,